Weather WX

World > North America > United States > Minnesota

Wastedo, Minnesota Regional Weather

Lat: 44.40N, Lon: 92.85W
Wx Zone: MNZ078
Feedback

Wastedo, MN Regional Weather

Expires:201906250400;;033464
ASUS43 KMPX 250310
RWRMN 
WEATHER ROUNDUP FOR MINNESOTA
NATIONAL WEATHER SERVICE TWIN CITIES/CHANHASSEN MN
1000 PM CDT MON JUN 24 2019


NOTE: "FAIR" INDICATES FEW OR NO CLOUDS BELOW 12,000 FEET WITH NO
SIGNIFICANT WEATHER AND/OR OBSTRUCTIONS TO VISIBILITY. N/A MEANS
CURRENT SKY AND/OR WEATHER CONDITIONS ARE NOT AVAILABLE.


MNZ078>079-086>088-094>096-250400-
   Southeast Minnesota   
  
CITY           SKY/WX    TMP DP  RH WIND       PRES   REMARKS
ROCHESTER      FAIR      60  57  89 SW5       29.72R                  
RED WING       FAIR      59  57  94 CALM      29.68R                  
STANTON        FAIR      62  59  90 S3        29.68R                  
DODGE CENTER   FAIR      63  57  82 CALM      29.71R                  
WINONA         FAIR      64  55  72 CALM      29.69R                  
AUSTIN         FAIR      64  54  68 S3        29.73R                  
PRESTON        FAIR      60  57  88 SW5       29.73R                  
$$
ABBREVIATIONS USED IN REMARKS
   TC - TEMPERATURES IN CELSIUS
  WCI - WIND CHILL INDEX
   HX - HEAT INDEX
  VSB - VISIBILITY 
$$
  

SKY/WX - Weather  TMP - Temperature  DP - Dew Point  RH - Relative Humidity
WIND - Wind Direction/Speed PRES - Barometric Pressure VSB - Visibility
WCI - Wind Chill Index E13G22 Wind - East Wind 13 mph/Gusts of 22 mph